Flag for Germany Weather past 2 weeks in Germering, Bavaria, Germany

Now
48 °F

Partly cloudy.


Feels Like: 47 °F
Forecast: 43 / 59 °F
Wind: 3 mph from South

Location: Landsberg

Current Time: May 23, 2015 at 12:12:44 AM

Latest Report: May 22, 2015 at 10:20 PM


Visibility: N/A

Pressure: 30.18 "Hg

Humidity: 82%

Dew point: 43 °F

Location of GermeringLocation

Historic Weather in Germering — Graph

°F

Germering temperature yesterday

Maximum temperature yesterday: 55 °F (at 3:20 PM)
Minimum temperature yesterday: 41 °F (at 4:20 AM)
Average temperature yesterday: 49 °F

Past Weeks' High & Low Weather Summary

 TemperatureHumidityPressure
High79 °F (May 12, 2:20 PM)100% (May 15, 3:20 PM)30.36 "Hg (May 15, 3:20 PM)
Low41 °F (May 22, 4:20 AM)26% (May 12, 2:20 PM)29.77 "Hg (May 18, 6:20 PM)
Average56 °F75%30.10 "Hg
* Reported May 7 10:20 PM — May 22 10:20 PM, Germering, Weather by CustomWeather, © 2015

Note: Actual official high and low records may vary slightly from our data, if they occured in-between our weather recording intervals... More about our weather records

Advertising

Germering weather history for previous 24 hours

 ConditionsComfort  
Time TempWeatherWind HumidityBarometerVisibility
10:20 PM
Fri, May 22
48 °FPartly cloudy.3 mph82%30.18 "HgN/A
9:20 PM50 °FPartly sunny.6 mph76%30.18 "HgN/A
8:20 PM50 °FPartly sunny.6 mph76%30.18 "HgN/A
7:20 PM52 °FPartly sunny.7 mph67%30.18 "HgN/A
6:20 PM54 °FPartly sunny.8 mph67%30.18 "HgN/A
5:20 PM55 °FBroken clouds.6 mph63%30.18 "HgN/A
4:20 PM54 °FPartly sunny.6 mph67%30.18 "HgN/A
3:20 PM55 °FPartly sunny.3 mph59%30.21 "HgN/A
2:20 PM54 °FBroken clouds.8 mph63%30.21 "HgN/A
1:20 PM54 °FPartly sunny.5 mph67%30.24 "HgN/A
12:20 PM54 °FBroken clouds.10 mph63%30.27 "HgN/A
11:20 AM52 °FBroken clouds.9 mph72%30.27 "Hg6 mi
10:20 AM50 °FPartly sunny.7 mph76%30.27 "Hg6 mi
9:20 AM50 °FPartly sunny.7 mph82%30.27 "Hg4 mi
8:20 AM46 °FPartly sunny.3 mph87%30.27 "Hg4 mi
7:20 AM45 °FFog.1 mph93%30.27 "Hg3 mi
6:20 AM43 °FFog.No wind93%30.27 "Hg3 mi
5:20 AM41 °FFog.1 mph100%30.27 "Hg1 mi
4:45 AM41 °FFog.3 mph93%30.27 "Hg2 mi
4:20 AM41 °FFog.3 mph93%30.27 "Hg3 mi
3:20 AM45 °FFog.5 mph93%30.27 "Hg5 mi
2:20 AM45 °FPassing clouds.3 mph93%30.27 "Hg5 mi
1:20 AM45 °FPassing clouds.5 mph93%30.27 "Hg5 mi
12:20 AM45 °FOvercast.5 mph93%30.30 "Hg5 mi
Weather by CustomWeather, © 2015

See weather overviewHow to use our weather pages